Volver al catálogo

CZ-6A DEB

ActivoPO
NORAD 54591·DEBRIS·🇨🇳 China

Lanzado Nov 11, 2022 desde Taiyuan Satellite Launch Center

Loading…

Próximos Pases (próximas 24 horas)

TLE

ActualizadoSource: Space-Track

Época: Sep 12, 2026, 18:16 UTC

1 54591U 22151MR  26255.76117884  .00014221  00000-0  13461-2 0  9994
2 54591  98.7165   2.5442 0075975 329.1056  30.5700 14.91577990129603

Sigue CZ-6A DEB en tiempo real con AllMySat

Download on the App Store